Regional Weather Roundup
Issued by NWS

Home | Current Version | Previous Version | Graphics & Text | Print | Product List | Glossary On
Versions: 1 2 3 4 5 6 7 8 9 10 11 12 13 14 15 16 17 18 19 20 21 22 23 24 25 26 27
000
ASUS45 KBOI 270310
RWRID

IDAHO REGIONAL WEATHER ROUNDUP
NATIONAL WEATHER SERVICE BOISE ID
900 PM MDT SAT MAY 26 2018

NOTE: "FAIR" INDICATES FEW OR NO CLOUDS BELOW 12000 FEET
WITH NO SIGNIFICANT WEATHER AND/OR OBSTRUCTIONS TO VISIBILITY

IDZ012-014-270400-
SOUTHWEST IDAHO


CITY           SKY/WX    TMP DP  RH WIND       PRES   REMARKS
BOISE          CLOUDY    60  53  77 SW6       29.91R
CALDWELL       CLOUDY    62  53  72 CALM      29.92R
$$

IDZ016-017-270400-
SOUTHCENTRAL IDAHO


CITY           SKY/WX    TMP DP  RH WIND       PRES   REMARKS
BURLEY         CLEAR     58  45  62 W7        29.92R
JEROME         MOCLDY    55  46  71 SW6       29.93R
TWIN FALLS     MOCLDY    53  47  79 S9        29.93R
$$

IDZ019>023-270400-
SOUTHEAST IDAHO


CITY           SKY/WX    TMP DP  RH WIND       PRES   REMARKS
IDAHO FALLS    MOCLDY    68  46  45 W10       29.86R
POCATELLO      CLOUDY    60  44  55 SW16      29.92R
REXBURG        MOCLDY    71  40  32 CALM      29.85R
$$

IDZ006-010-011-018-031-032-270400-
CENTRAL IDAHO MOUNTAINS


CITY           SKY/WX    TMP DP  RH WIND       PRES   REMARKS
MCCALL         CLOUDY    58  45  62 NW18      29.99R
HAILEY         MOCLDY    59  45  58 NW10      29.95R
STANLEY          N/A     46  44  93 SW3       30.09R
SALMON         MOCLDY    63  46  54 VRB5      29.94R
CHALLIS        CLOUDY    60  42  51 NW8       29.95R
$$

IDZ002-004-006-007-026-270400-
NORTHERN IDAHO


CITY           SKY/WX    TMP DP  RH WIND       PRES   REMARKS
LEWISTON       CLEAR     66  51  58 S6        30.01R
LOWELL           N/A     58  56  93 N3        30.00R
COEUR D`ALENE  CLEAR     65  46  50 S9        29.99R
MULLAN PASS    PTCLDY    46  44  93 NW6       30.10R
$$




USA.gov is the U.S. government's official web portal to all federal, state and local government web resources and services.